Regional Weather Roundup
Issued by NWS

Home | Current Version | Previous Version | Text Only | Print | Product List | Glossary Off
Versions: 1 2 3 4 5 6 7 8 9 10 11 12 13 14 15 16 17 18 19 20 21 22 23 24 25 26 27 28 29 30 31 32 33 34 35 36 37 38 39 40 41 42 43 44 45 46 47 48 49 50

000
ASUS43 KOAX 301310
RWRNE

WEATHER ROUNDUP FOR NEBRASKA
NATIONAL WEATHER SERVICE OMAHA NE
800 AM CDT THU OCT 30 2014

NOTES: SATELLITE DATA IS BEING USED TO AUGMENT CLOUD COVER ABOVE
       12000 FEET.
       "FAIR" INDICATES FEW OR NO CLOUDS BELOW 12,000 FEET WITH NO
       SIGNIFICANT WEATHER AND/OR OBSTRUCTIONS TO VISIBILITY.

  * THESE STATIONS DO NOT REPORT WEATHER SUCH AS RAIN...SNOW OR FOG.

NEZ001>004-019>022-054>056-301400-
NEBRASKA PANHANDLE

CITY           SKY/WX    TMP DP  RH WIND       PRES   REMARKS
SCOTTSBLUFF    CLEAR     34  27  75 NW7       30.30R WCI  28
ALLIANCE       CLEAR     30  26  85 W6        30.26R WCI  24
CHADRON        CLEAR     36  27  69 SW6       30.27R WCI  31
KIMBALL        CLEAR     36  26  68 NW9       30.30R WCI  29
SIDNEY         CLEAR     36  26  67 W14       30.29R WCI  27
$$

NEZ057>060-069>072-079>082-301400-
SOUTHWEST NEBRASKA

CITY           SKY/WX    TMP DP  RH WIND       PRES   REMARKS
NORTH PLATTE   CLEAR     33  26  75 W6        30.20R WCI  28
IMPERIAL       CLEAR     39  25  57 NW12      30.25R WCI  32
LEXINGTON      CLEAR     40  30  68 NW12      30.17S WCI  33
MCCOOK         CLEAR     39  26  59 W12       30.21R WCI  32
OGALLALA       CLEAR     41  31  65 NW10      30.24R
$$

NEZ005>010-023>029-035>040-094-301400-
NORTH CENTRAL NEBRASKA

CITY           SKY/WX    TMP DP  RH WIND       PRES   REMARKS
VALENTINE      CLEAR     37  32  82 W8        30.18R WCI  31
AINSWORTH      CLEAR     43  34  70 NW10      30.15R
BROKEN BOW     CLEAR     45  32  60 NW17      30.14R
O`NEILL        CLEAR     46  37  71 NW16      30.10R
ORD            CLEAR     33  28  81 NW5       30.12R WCI  29
THEDFORD       CLEAR     40  33  74 NW6       30.19S
$$

NEZ041-046>049-061>064-073>077-083>087-301400-
SOUTH CENTRAL NEBRASKA

CITY           SKY/WX    TMP DP  RH WIND       PRES   REMARKS
GRAND ISLAND   CLEAR     39  32  76 W8        30.12R WCI  33
AURORA         CLEAR     43  33  68 NW12      30.09R
HASTINGS       CLEAR     42  31  64 NW12      30.11R
HEBRON         CLEAR     43  34  70 NW5       30.08R
HOLDREGE       CLEAR     41  29  63 NW9       30.15R
KEARNEY *      CLEAR     43  30  61 W8        30.15R
YORK           CLEAR     39  36  87 NW8       30.08R WCI  34
$$

NEZ011>018-030>034-042>045-301400-
NORTHEAST NEBRASKA

CITY           SKY/WX    TMP DP  RH WIND       PRES   REMARKS
NORFOLK        CLEAR     40  34  79 W9        30.04S WCI  34
ALBION         CLEAR     43  32  67 NW9       30.08R
BLAIR          CLEAR     40  33  74 W8        30.01R
COLUMBUS *       N/A    N/A N/A N/A MISG        N/A
FREMONT        CLEAR     37  33  87 W6        30.04R WCI  32
TEKAMAH        CLEAR     32  28  85 W5        30.02R WCI  27
WAYNE          CLEAR     40  34  76 NW3       30.04R
$$

NEZ050>053-065>068-078-088>093-301400-
SOUTHEAST NEBRASKA

CITY           SKY/WX    TMP DP  RH WIND       PRES   REMARKS
LINCOLN        CLEAR     42  35  76 NW8       30.06R
OMAHA EPPLEY   PTCLDY    37  34  89 N6        30.03R WCI  32
BEATRICE       CLEAR     36  34  92 NW6       30.05R WCI  31
FALLS CITY     PTCLDY    41  38  89 W8        30.00R
NEBRASKA CITY  CLEAR     39  34  81 W3        30.01S
PLATTSMOUTH    CLEAR     37  33  86 NW8       30.01S WCI  30
$$

NEZ044-045-051>053-067-301400-
OMAHA AREA

CITY           SKY/WX    TMP DP  RH WIND       PRES   REMARKS
OMAHA EPPLEY   PTCLDY    37  34  89 N6        30.03R WCI  32
BLAIR          CLEAR     40  33  74 W8        30.01R
FREMONT        CLEAR     37  33  87 W6        30.04R WCI  32
MILLARD        CLEAR     39  35  85 NW5       30.02R
OFFUTT AFB     CLEAR     37  35  91 W2        30.01R
PLATTSMOUTH    CLEAR     37  33  86 NW8       30.01S WCI  30
WAHOO          FAIR      43  35  72 NW8       30.04R
$$



USA.gov is the U.S. government's official web portal to all federal, state and local government web resources and services.